Home   Weather   Ecatepec   Past weeks
Flag for Mexico

Past Weather in Ecatepec, México, Mexico — Yesterday and Last 2 Weeks

Now
64 °F

Mostly cloudy.


Feels Like: 64 °F
Forecast: 78 / 59 °F
Wind: 8 mph from West

Location: Mexico City / Licenci

Current Time: Jun 18, 2019 at 5:54:44 am

Latest Report: Jun 18, 2019 at 4:43 am


Visibility: 8 mi

Pressure: 30.32 "Hg (23.28 "Hg at 2250m altitude)

Humidity: 64%

Dew Point: 52 °F

Location of EcatepecLocation

Past Weather in Ecatepec — Graph

°F

Ecatepec Temperature Yesterday

Maximum temperature yesterday: 82 °F (at 3:48 pm)
Minimum temperature yesterday: 61 °F (at 5:42 am)
Average temperature yesterday: 72 °F

High & Low Weather Summary for the Past Weeks

 TemperatureHumidityPressure
High82 °F (Jun 8, 4:45 pm)100% (Jun 6, 1:04 am)30.48 "Hg (Jun 6, 1:04 am)
Low55 °F (Jun 9, 6:50 am)15% (Jun 10, 12:12 pm)29.55 "Hg (Jun 5, 6:51 pm)
Average67 °F60%30.17 "Hg
* Reported Jun 3 4:45 am — Jun 18 4:43 am, Ecatepec. Weather by CustomWeather, © 2019

Note: Actual official high and low records may vary slightly from our data, if they occured in-between our weather recording intervals... More about our weather records

Advertising

Ecatepec Weather History for the Previous 24 Hours

Scroll right to see more
 ConditionsComfort  
Time TempWeatherWind HumidityBarometerVisibility
4:43 am
Tue, Jun 18
64 °FMostly cloudy.8 mph64%30.32 "Hg8 mi
3:45 am64 °FMostly cloudy.7 mph60%29.70 "Hg8 mi
2:45 am64 °FMostly cloudy.7 mph60%30.32 "Hg9 mi
1:43 am66 °FPassing clouds.9 mph52%30.32 "Hg8 mi
12:45 am68 °FPassing clouds.9 mph53%29.76 "Hg9 mi
11:45 pm
Mon, Jun 17
70 °FPassing clouds.12 mph50%30.35 "Hg10 mi
10:45 pm70 °FPartly cloudy.9 mph50%30.31 "Hg10 mi
9:45 pm72 °FPartly cloudy.14 mph47%29.70 "Hg10 mi
8:51 pm72 °FPartly cloudy.17 mph44%30.27 "Hg9 mi
8:05 pm73 °FBroken clouds.14 mph47%30.23 "Hg9 mi
7:50 pm77 °FBroken clouds.14 mph34%30.21 "Hg9 mi
6:52 pm82 °FBroken clouds.16 mph20%29.56 "Hg8 mi
5:45 pm82 °FBroken clouds.9 mph20%30.17 "Hg8 mi
4:44 pm82 °FBroken clouds.14 mph23%30.19 "Hg8 mi
3:48 pm82 °FScattered clouds.14 mph20%29.62 "Hg8 mi
2:50 pm81 °FScattered clouds.7 mph21%30.24 "Hg8 mi
1:45 pm79 °FScattered clouds.14 mph21%30.27 "Hg7 mi
1:36 pm79 °FScattered clouds.8 mph24%30.28 "Hg7 mi
12:45 pm75 °FScattered clouds.9 mph31%29.72 "Hg7 mi
11:45 am73 °FScattered clouds.No wind38%30.30 "Hg7 mi
10:45 am72 °FScattered clouds.5 mph53%30.31 "Hg6 mi
9:45 am68 °FScattered clouds.No wind60%29.77 "Hg6 mi
8:45 am64 °FScattered clouds.5 mph73%30.31 "Hg5 mi
7:48 am64 °FPartly sunny.6 mph73%30.29 "Hg5 mi
6:50 am63 °FPassing clouds.5 mph77%29.72 "Hg5 mi
5:42 am61 °FPartly cloudy.5 mph83%30.28 "Hg7 mi
Weather by CustomWeather, © 2019

See weather overview